Wind_Speed
8 10 12 15 17 20 22 23 26 28 29 32 34 35 36 37 36 38 38 38 38 38 37 36 36 36 35 34 33 33 32 32 31 30 29 29 28 28
6 8 10 12 14 17 20 21 23 25 27 31 33 34 36 37 37 37 38 39 39 40 40 40 39 39 38 37 37 36 36 35 34 33 33 32 31 31
6 7 8 10 12 15 17 20 22 24 25 28 31 33 35 36 37 38 39 40 41 42 42 41 42 42 41 40 40 40 38 38 37 36 36 35 34 34
6 7 8 9 11 13 15 18 20 22 24 25 28 30 33 35 36 38 39 41 42 42 44 43 43 43 43 43 43 43 42 41 41 40 39 38 37 37
7 7 7 8 10 11 13 16 18 20 22 24 26 29 31 33 35 37 39 40 41 42 43 44 45 45 46 45 46 45 45 44 43 43 42 41 40 39
7 7 7 8 9 11 12 14 16 19 21 23 25 27 30 31 34 36 38 39 41 43 43 45 46 47 48 47 47 47 47 46 46 46 45 44 43 41
9 8 8 8 9 10 12 13 15 17 19 21 23 25 27 30 31 34 36 38 40 42 43 45 45 47 48 48 48 48 49 49 48 48 47 47 46 45
10 9 9 9 10 10 11 12 14 15 17 19 21 23 25 27 29 31 33 35 38 40 41 43 45 45 47 48 48 48 50 50 50 50 49 49 48 48
11 10 10 10 11 11 12 12 13 14 16 17 19 20 22 23 25 27 30 32 34 38 40 41 43 44 45 46 47 47 47 48 49 50 50 51 50 49
12 11 11 11 12 12 13 13 14 14 15 17 17 19 20 21 22 24 26 29 31 33 37 38 39 41 43 44 45 46 46 46 47 47 48 49 49 49
13 13 13 13 13 13 13 14 14 15 15 16 17 18 18 19 20 22 24 26 28 30 33 35 36 39 40 42 43 45 46 46 46 46 47 47 47 47
15 14 14 15 14 14 14 15 15 15 15 16 16 17 18 18 19 20 21 23 25 27 30 32 34 35 36 38 40 42 43 44 45 46 46 47 47 47
17 16 16 16 16 15 15 16 16 16 16 16 16 17 18 19 19 20 20 21 23 25 27 30 32 33 33 34 36 39 41 42 44 44 44 45 47 47
19 18 18 17 17 17 16 16 17 17 17 17 17 18 18 19 20 20 21 22 23 24 26 27 29 32 33 34 35 37 38 39 42 43 44 45 47 48
20 20 19 19 19 18 18 18 18 18 18 18 18 19 19 20 21 21 22 22 23 25 26 27 29 30 32 33 34 35 36 37 39 41 42 44 45 46
21 21 21 20 20 20 20 19 19 19 19 19 19 20 20 20 21 22 23 23 24 25 26 27 28 29 30 32 33 34 35 36 38 40 41 43 44 45
22 22 22 22 21 21 21 21 20 20 20 21 21 21 21 22 22 23 24 24 25 25 26 27 28 29 30 31 32 34 35 36 37 38 40 41 43 44
24 24 23 23 22 22 22 22 22 22 22 22 22 23 23 23 24 24 25 25 26 27 28 29 30 30 31 31 33 34 35 35 36 37 39 39 41 42
26 25 25 24 24 23 23 23 23 23 23 24 24 24 25 25 26 26 27 27 28 28 29 30 31 32 33 33 33 35 36 37 37 38 38 39 40 41
28 27 27 26 26 25 25 25 26 26 26 26 26 26 27 27 28 29 29 30 30 31 31 32 33 33 34 34 34 35 37 38 38 39 39 40 41 41
29 29 29 28 28 28 28 28 28 28 29 29 29 30 30 30 31 31 32 33 33 34 35 35 36 36 36 36 36 36 37 39 39 39 39 39 40 41
31 31 30 30 30 30 30 30 31 31 31 31 32 32 33 34 34 35 35 36 37 37 38 39 39 40 40 40 39 38 38 39 39 40 40 40 39 39
33 32 32 32 32 32 33 33 33 33 34 34 34 35 36 36 37 38 39 39 40 41 41 42 43 43 43 43 43 42 42 41 41 42 42 41 41 40
Wind_Direction
261 251 247 244 240 239 239 239 240 240 239 237 235 234 234 234 235 235 236 236 236 236 236 236 237 236 237 237 238 239 241 243 244 246 247 248 249 252
273 259 251 243 239 239 239 239 240 241 241 239 238 237 236 236 237 238 238 238 238 237 237 238 239 239 239 240 241 242 244 244 245 247 248 249 251 252
286 270 258 247 244 241 240 240 240 241 244 244 241 240 240 239 238 238 239 240 239 238 239 240 240 241 241 242 242 243 245 245 246 247 249 250 251 253
297 280 266 256 252 247 243 242 242 243 245 246 244 243 243 243 242 241 239 239 240 240 240 241 242 241 243 244 244 244 245 246 246 247 249 250 252 253
310 292 277 267 261 256 252 248 246 247 247 249 248 246 245 244 244 245 244 242 240 240 241 242 243 243 244 245 245 245 246 247 247 247 249 250 252 253
318 305 291 280 273 266 260 256 253 251 252 253 252 250 247 246 246 246 245 244 243 242 242 242 243 244 245 246 246 245 246 247 247 248 249 250 251 252
320 310 301 292 284 276 268 263 260 258 257 256 256 254 251 250 249 249 248 247 246 245 244 244 244 245 246 247 247 247 247 247 248 248 249 250 251 252
323 314 306 300 294 287 280 274 270 266 264 262 261 259 256 254 252 252 250 249 248 247 247 246 246 247 247 248 248 248 248 248 248 248 248 250 251 252
325 317 310 303 298 294 289 283 278 275 272 271 266 265 261 258 256 254 253 251 250 248 248 249 249 248 249 249 249 249 250 250 250 249 249 250 250 252
320 316 310 304 298 293 290 288 284 279 277 275 269 267 265 262 260 259 257 254 252 252 250 251 252 252 250 250 250 249 251 251 252 252 251 252 252 252
315 312 309 305 300 294 290 288 286 283 280 279 276 271 268 265 263 262 260 257 255 254 253 254 256 256 255 254 253 252 251 252 252 253 253 254 254 253
314 310 306 303 300 295 291 288 286 286 283 281 280 278 273 268 265 265 263 260 259 258 258 258 259 259 259 258 258 256 254 254 254 255 255 255 255 255
312 309 305 302 300 296 292 289 287 287 287 285 281 279 277 273 270 267 265 264 262 261 260 260 260 260 260 260 261 260 258 257 256 255 256 255 255 255
310 309 305 300 298 297 294 291 289 288 287 287 285 281 280 277 276 274 269 267 267 264 263 263 262 260 260 259 260 261 260 260 259 257 256 255 255 255
308 307 305 301 297 294 292 292 290 289 289 288 287 285 282 281 279 278 276 273 271 269 267 266 265 263 261 260 259 260 260 260 259 258 256 256 255 256
306 305 303 300 297 294 291 290 290 289 289 289 288 288 286 283 281 279 278 277 275 273 271 270 268 267 264 262 260 259 260 261 260 260 259 258 257 256
304 303 301 299 296 293 291 290 290 289 289 288 288 287 286 285 283 282 280 278 277 275 273 272 271 270 268 265 263 262 260 261 261 261 261 260 258 257
304 302 300 298 296 293 291 290 289 289 289 289 289 288 287 286 285 284 282 280 278 277 276 274 273 273 271 269 267 265 264 263 262 262 262 261 259 258
303 301 299 298 295 293 291 290 290 289 289 289 289 288 288 287 286 284 283 282 280 279 278 276 276 275 274 272 270 268 267 266 264 263 263 262 260 259
301 300 298 296 294 292 291 291 290 290 290 290 289 288 288 287 287 285 284 283 283 281 280 278 278 277 276 274 272 270 269 268 266 265 265 264 262 260
300 299 297 295 293 291 291 290 290 290 290 290 290 289 289 288 288 287 286 285 283 282 281 280 279 278 277 275 273 271 269 269 268 267 266 266 263 262
298 297 296 294 292 291 290 290 290 290 290 290 290 290 290 289 289 288 288 287 285 284 282 281 279 278 277 276 275 273 271 270 269 268 267 266 265 263
297 297 295 293 291 290 290 289 289 290 290 290 290 291 290 290 290 290 289 288 287 286 284 282 280 279 277 275 274 274 272 270 269 268 268 267 265 263
Height
5772 5772 5773 5774 5775 5777 5779 5782 5785 5787 5790 5792 5796 5799 5802 5806 5809 5813 5817 5821 5824 5828 5831 5834 5837 5841 5844 5847 5850 5853 5855 5858 5860 5862 5864 5866 5867 5868
5769 5769 5770 5770 5771 5773 5775 5777 5779 5781 5783 5786 5788 5791 5795 5798 5802 5805 5809 5812 5816 5819 5823 5826 5829 5833 5836 5839 5842 5845 5848 5850 5853 5855 5857 5859 5860 5862
5767 5767 5767 5767 5768 5769 5770 5772 5773 5775 5777 5779 5781 5784 5787 5790 5794 5797 5800 5803 5807 5810 5814 5817 5820 5824 5827 5831 5834 5836 5839 5842 5844 5847 5849 5851 5852 5854
5764 5764 5764 5764 5764 5765 5766 5767 5768 5769 5771 5772 5774 5776 5779 5782 5785 5788 5791 5794 5797 5801 5804 5807 5811 5814 5818 5821 5824 5827 5830 5833 5835 5838 5840 5842 5844 5846
5762 5761 5761 5761 5761 5761 5761 5761 5762 5763 5765 5766 5767 5769 5771 5773 5776 5779 5781 5784 5787 5790 5794 5797 5800 5804 5807 5810 5813 5817 5820 5823 5826 5828 5830 5832 5834 5836
5760 5759 5758 5758 5757 5757 5757 5757 5757 5758 5759 5759 5760 5761 5763 5765 5767 5769 5771 5774 5777 5780 5783 5786 5789 5793 5796 5799 5803 5805 5808 5811 5814 5817 5820 5822 5824 5826
5759 5758 5756 5755 5755 5754 5753 5753 5753 5753 5753 5753 5753 5754 5755 5757 5758 5760 5762 5764 5766 5768 5771 5775 5779 5782 5784 5787 5790 5793 5796 5799 5802 5805 5808 5811 5813 5815
5757 5756 5754 5753 5752 5751 5750 5749 5748 5748 5747 5747 5747 5747 5748 5749 5750 5751 5752 5754 5756 5759 5760 5764 5767 5770 5772 5775 5778 5781 5783 5786 5789 5793 5795 5798 5801 5803
5755 5753 5752 5750 5749 5748 5746 5745 5744 5743 5742 5742 5741 5741 5741 5741 5742 5743 5743 5744 5746 5747 5750 5753 5755 5758 5760 5763 5766 5768 5771 5774 5776 5779 5782 5785 5788 5791
5753 5751 5749 5747 5746 5744 5743 5742 5740 5739 5738 5737 5736 5735 5735 5735 5735 5735 5735 5736 5738 5739 5740 5743 5745 5747 5749 5751 5754 5756 5759 5762 5764 5767 5769 5772 5775 5777
5751 5748 5746 5744 5742 5741 5739 5738 5736 5735 5733 5732 5731 5730 5729 5729 5729 5729 5729 5729 5730 5731 5732 5734 5735 5737 5738 5740 5742 5744 5747 5750 5752 5754 5757 5759 5762 5764
5747 5745 5743 5741 5739 5737 5735 5734 5732 5730 5729 5728 5726 5725 5724 5723 5723 5723 5723 5723 5723 5724 5724 5725 5726 5727 5729 5730 5731 5733 5735 5738 5740 5742 5744 5747 5749 5751
5744 5741 5739 5737 5735 5733 5731 5729 5728 5726 5724 5723 5722 5720 5719 5718 5717 5717 5716 5716 5716 5717 5717 5717 5717 5718 5719 5720 5721 5722 5724 5726 5728 5730 5732 5734 5736 5738
5739 5737 5735 5733 5731 5729 5727 5725 5723 5722 5720 5718 5717 5715 5714 5713 5712 5711 5710 5710 5709 5709 5709 5709 5708 5709 5709 5711 5712 5712 5713 5714 5716 5718 5720 5722 5723 5725
5735 5732 5730 5728 5726 5724 5722 5720 5719 5717 5715 5713 5712 5710 5709 5707 5706 5705 5704 5703 5702 5702 5701 5700 5700 5700 5700 5701 5702 5703 5703 5703 5704 5706 5707 5709 5711 5712
5730 5727 5725 5722 5720 5718 5717 5715 5713 5712 5710 5708 5706 5705 5703 5701 5700 5699 5698 5696 5696 5695 5693 5693 5692 5691 5691 5691 5692 5693 5693 5693 5694 5694 5695 5697 5698 5700
5724 5722 5719 5717 5715 5713 5711 5709 5707 5706 5704 5702 5701 5699 5697 5696 5694 5692 5691 5690 5689 5687 5686 5685 5684 5683 5683 5683 5683 5683 5683 5683 5683 5683 5684 5685 5686 5687
5718 5716 5713 5711 5708 5706 5704 5703 5701 5699 5697 5696 5694 5692 5691 5689 5687 5685 5684 5682 5681 5679 5678 5677 5676 5675 5674 5674 5674 5673 5673 5673 5673 5673 5672 5673 5674 5675
5711 5709 5706 5704 5702 5700 5698 5696 5694 5692 5690 5689 5687 5685 5683 5681 5679 5678 5676 5674 5673 5671 5669 5668 5666 5665 5665 5664 5664 5663 5662 5662 5662 5661 5661 5661 5662 5663
5704 5701 5699 5697 5694 5692 5690 5689 5687 5685 5683 5681 5679 5677 5675 5673 5671 5669 5667 5665 5664 5662 5660 5658 5657 5655 5654 5653 5653 5652 5650 5650 5650 5649 5649 5649 5650 5650
5696 5693 5691 5689 5686 5684 5682 5680 5679 5677 5674 5672 5670 5668 5666 5664 5662 5660 5658 5656 5654 5652 5650 5648 5646 5644 5642 5641 5641 5641 5639 5637 5637 5637 5637 5637 5637 5637
5687 5685 5682 5680 5678 5676 5673 5671 5669 5667 5665 5663 5660 5658 5656 5653 5651 5649 5647 5644 5642 5640 5638 5636 5634 5632 5630 5629 5628 5628 5627 5626 5624 5624 5624 5624 5623 5624
5678 5675 5673 5670 5668 5666 5664 5661 5659 5657 5655 5652 5650 5647 5645 5642 5639 5637 5634 5631 5629 5626 5624 5622 5620 5618 5616 5614 5613 5613 5612 5612 5611 5611 5611 5610 5610 5611